Location: Clanezzo
(45.7500°N, 9.6000°E)
Time: 04:27:43
(UTC+00:00)

Meteor 2-4 Rocket - Pass Details

Date: 12 May 2021
Orbit: 799 x 909 km, 81.2° (Epoch: 18 June)

Event Time Altitude Azimuth Distance (km) Brightness Sun altitude
Exits shadow 22:36:00 66° 154° (SSE) 945 3.6 -25.2°
Maximum altitude 22:36:43 76° 99° (E) 895 3.7 -25.2°
Drops below altitude 10° 22:42:21 10° 14° (NNE) 2,479 7.0 -25.4°
Sets 22:44:44 0° 13° (NNE) 3,402 8.0 -25.4°
